Location: *
(45.5667°S, 177.5167°W)
Time: 05:09:00
(UTC+00:00)

CZ-2C R/B - Pass Details

Date: 29 May 2022
Orbit: 785 x 869 km, 98.2° (Epoch: 24 June)

Event Time Altitude Azimuth Distance (km) Brightness Sun altitude
Rises 05:00:09 0° 354° (N) 3,444 6.3 -7.4°
Reaches altitude 10° 05:02:41 10° 346° (NNW) 2,509 5.7 -7.9°
Maximum altitude 05:07:54 40° 277° (W) 1,255 4.3 -8.7°
Drops below altitude 10° 05:13:07 10° 208° (SSW) 2,498 5.2 -9.5°
Sets 05:15:39 0° 200° (SSW) 3,427 5.9 -10.0°
